FW3284 Weather Reports


Display with metric or nautical units.
time (UTC)temp
F
wind
direction
speed
MPH
gust
MPH
rain 1hr
in
rain 24hr
in
rain mn
in
humidity
%
barometer
mb
20260508061554 52 184 0.0 0.0 0.00 0.00 0.00 72 1014.4
20260508060027 52 198 0.0 0.0 0.00 0.00 0.00 71 1014.5
20260508054515 52 182 0.0 4.0 0.00 0.00 0.00 70 1014.5
20260508053048 53 176 0.0 3.0 0.00 0.00 0.00 69 1014.5
20260508051528 52 174 0.0 3.0 0.00 0.00 0.00 70 1014.5
20260508050054 52 214 0.0 0.0 0.00 0.00 0.00 70 1014.5
20260508044536 52 162 0.0 0.0 0.00 0.00 0.00 71 1014.7
20260508043020 52 162 0.0 0.0 0.00 0.00 0.00 71 1014.9
20260508041559 53 162 0.0 0.0 0.00 0.00 0.00 68 1015.2
20260508041502 53 162 0.0 0.0 0.00 0.00 0.00 68 1015.2
20260508040040 54 178 0.0 1.0 0.00 0.00 0.00 65 1015.4
20260508034516 55 171 0.0 3.0 0.00 0.00 0.00 65 1015.5
20260508033052 55 179 0.0 2.0 0.00 0.00 0.00 64 1015.5
20260508031540 55 184 0.0 0.0 0.00 0.00 0.00 62 1015.5
20260508030024 56 183 0.0 3.0 0.00 0.00 0.00 62 1015.3
20260508024506 56 183 0.0 2.0 0.00 0.00 0.00 62 1015.2
20260508023049 57 195 0.0 0.0 0.00 0.00 0.00 61 1014.9
20260508021531 57 192 0.0 3.0 0.00 0.00 0.00 59 1014.5
20260508020015 58 205 0.0 0.0 0.00 0.00 0.00 57 1014.4
20260508014556 59 187 0.0 0.0 0.00 0.00 0.00 55 1014.4
20260508013044 60 212 0.0 0.0 0.00 0.00 0.00 55 1014.4
20260508011520 60 212 0.0 1.0 0.00 0.00 0.00 54 1014.2
20260508010059 61 180 0.0 2.0 0.00 0.00 0.00 52 1014.1
20260508010003 61 180 0.0 2.0 0.00 0.00 0.00 52 1014.1
20260508004545 62 218 0.0 3.0 0.00 0.00 0.00 51 1013.9
20260508003051 63 214 1.0 6.0 0.00 0.00 0.00 50 1013.9
20260508001513 64 210 0.0 4.0 0.00 0.00 0.00 48 1013.8
20260508000047 64 252 3.0 6.0 0.00 0.00 0.00 47 1013.9
20260507234530 64 257 0.0 2.0 0.00 0.00 0.00 45 1014.0
20260507233008 64 195 5.0 10.0 0.00 0.00 0.00 45 1014.1
20260507231554 65 216 3.0 7.0 0.00 0.00 0.00 45 1014.2
20260507230033 65 262 0.0 2.0 0.00 0.00 0.00 45 1014.4
20260507224518 66 217 0.0 8.0 0.00 0.00 0.00 44 1014.5
20260507223004 65 239 2.0 10.0 0.00 0.00 0.00 43 1014.7
20260507221542 65 224 0.0 5.0 0.00 0.00 0.00 45 1014.9
20260507220015 66 263 6.0 12.0 0.00 0.00 0.00 42 1014.8
20260507214559 66 265 0.0 8.0 0.00 0.00 0.00 43 1014.9
20260507213041 65 250 4.0 13.0 0.00 0.00 0.00 43 1014.9
20260507211520 66 215 6.0 12.0 0.00 0.00 0.00 39 1015.1
20260507210005 67 194 3.0 10.0 0.00 0.00 0.00 39 1015.2
20260507204543 66 186 1.0 10.0 0.00 0.00 0.00 37 1015.5
20260507203024 65 255 0.0 14.0 0.00 0.00 0.00 40 1015.8
20260507201508 65 238 0.0 10.0 0.00 0.00 0.00 39 1016.0
20260507200051 65 250 0.0 5.0 0.00 0.00 0.00 39 1016.2
20260507194528 66 228 0.0 2.0 0.00 0.00 0.00 37 1016.4
20260507193006 65 264 3.0 7.0 0.00 0.00 0.00 39 1016.6
20260507191552 64 233 0.0 10.0 0.00 0.00 0.00 43 1016.8
20260507190032 63 224 1.0 9.0 0.00 0.00 0.00 40 1016.9
20260507184513 63 248 0.0 6.0 0.00 0.00 0.00 40 1016.8
20260507183049 63 254 0.0 9.0 0.00 0.00 0.00 38 1017.1
20260507181527 62 216 5.0 12.0 0.00 0.00 0.00 35 1017.2
20260507180014 63 206 2.0 6.0 0.00 0.00 0.00 39 1017.5
20260507174550 63 292 0.0 7.0 0.00 0.00 0.00 41 1017.7
20260507173027 61 224 4.0 9.0 0.00 0.00 0.00 38 1018.2
20260507171602 62 200 2.0 9.0 0.00 0.00 0.00 39 1018.4
20260507171506 62 177 2.0 9.0 0.00 0.00 0.00 40 1018.4
20260507170048 62 259 0.0 9.0 0.00 0.00 0.00 38 1018.6
20260507164528 60 306 0.0 9.0 0.00 0.00 0.00 43 1018.7
20260507163019 60 191 0.0 8.0 0.00 0.00 0.00 42 1018.8
20260507161552 61 222 1.0 6.0 0.00 0.00 0.00 39 1018.9
20260507160034 60 222 0.0 5.0 0.00 0.00 0.00 43 1019.0
20260507154512 58 96 0.0 7.0 0.00 0.00 0.00 46 1019.2
20260507153054 59 157 0.0 4.0 0.00 0.00 0.00 41 1019.3
20260507151536 59 120 1.0 6.0 0.00 0.00 0.00 42 1019.2
20260507150018 58 237 0.0 7.0 0.00 0.00 0.00 44 1019.2
20260507144556 58 223 0.0 7.0 0.00 0.00 0.00 48 1019.3
20260507143040 56 203 2.0 6.0 0.00 0.00 0.00 48 1019.6
20260507141518 56 203 0.0 4.0 0.00 0.00 0.00 49 1019.5
20260507140111 56 184 0.0 5.0 0.00 0.00 0.00 52 1019.6
20260507140002 56 241 0.0 5.0 0.00 0.00 0.00 54 1019.6
20260507134538 54 174 0.0 4.0 0.00 0.00 0.00 58 1019.6
20260507133021 52 113 0.0 0.0 0.00 0.00 0.00 76 1019.6
20260507131602 50 87 0.0 1.0 0.00 0.00 0.00 80 1019.6
20260507130031 47 121 0.0 0.0 0.00 0.00 0.00 91 1019.7
20260507124515 44 121 0.0 0.0 0.00 0.00 0.00 93 1019.6
20260507123040 41 127 0.0 0.0 0.00 0.00 0.00 93 1019.5
20260507121522 41 97 0.0 0.0 0.00 0.00 0.00 92 1019.4
20260507120058 40 97 0.0 0.0 0.00 0.00 0.00 92 1019.1
20260507114540 39 97 0.0 0.0 0.00 0.00 0.00 91 1019.1
20260507113023 39 97 0.0 0.0 0.00 0.00 0.00 92 1018.9
20260507111600 39 97 0.0 0.0 0.00 0.00 0.00 92 1018.9
20260507111504 39 97 0.0 0.0 0.00 0.00 0.00 92 1018.9
20260507110052 38 97 0.0 0.0 0.00 0.01 0.00 92 1018.7
20260507104528 38 97 0.0 0.0 0.00 0.01 0.00 92 1018.7
20260507103011 38 97 0.0 0.0 0.00 0.01 0.00 91 1018.6
20260507101601 38 97 0.0 0.0 0.00 0.01 0.00 90 1018.7
20260507100035 38 152 0.0 0.0 0.00 0.02 0.00 90 1018.7
20260507094514 38 152 0.0 0.0 0.00 0.02 0.00 89 1018.9
20260507093048 38 152 0.0 0.0 0.00 0.02 0.00 87 1018.8
20260507091548 38 152 0.0 0.0 0.00 0.02 0.00 85 1018.5
20260507090006 38 152 0.0 0.0 0.00 0.02 0.00 86 1018.6
20260507084549 38 124 0.0 0.0 0.00 0.02 0.00 87 1018.5
20260507083036 38 124 0.0 1.0 0.00 0.02 0.00 88 1018.5
20260507081523 38 172 0.0 0.0 0.00 0.02 0.00 87 1018.6
20260507080055 38 185 0.0 0.0 0.00 0.02 0.00 84 1018.6
20260507080000 39 185 0.0 0.0 0.00 0.02 0.00 83 1018.6
20260507074538 40 255 0.0 0.0 0.00 0.02 0.00 79 1018.9
20260507073022 40 255 0.0 0.0 0.00 0.02 0.00 78 1018.9
20260507071600 41 255 0.0 0.0 0.00 0.02 0.00 79 1019.1
20260507070055 41 255 0.0 0.0 0.00 0.02 0.00 78 1019.1
20260507064512 41 255 0.0 0.0 0.00 0.02 0.00 78 1019.2
20260507063046 44 255 0.0 0.0 0.00 0.02 0.00 71 1019.0